• In Latvia
  • List of Countries
  • For 7 days
  • Water Temperature
  • Satellite Maps
  • Weather Map
  • Weather Widgets
  • user-avatar
    Login

    Hourly Weather Mendoza

    Today, 27 May, Saturday

    Time Temperature Precipitation Wind Pressure Humidity
    00:00 +7°C° 0 mm 2 mps 704 mmHg 75%
    01:00 +7°C° 0 mm 2 mps 704 mmHg 76%
    02:00 +7°C° 0 mm 2 mps 704 mmHg 77%
    03:00 +7°C° 0 mm 2 mps 703 mmHg 78%
    04:00 +6°C° 0 mm 2 mps 703 mmHg 79%
    05:00 +6°C° 0 mm 2 mps 703 mmHg 79%
    06:00 +6°C° 0 mm 2 mps 703 mmHg 79%
    07:00 +6°C° 0 mm 2 mps 703 mmHg 79%
    08:00 +7°C° 0 mm 2 mps 703 mmHg 71%
    09:00 +9°C° 0 mm 2 mps 704 mmHg 63%
    10:00 +12°C° 0 mm 2 mps 704 mmHg 55%
    11:00 +12°C° 0 mm 2 mps 703 mmHg 53%
    12:00 +13°C° 0 mm 2 mps 702 mmHg 51%
    13:00 +14°C° 0 mm 2 mps 702 mmHg 49%
    14:00 +13°C° 0 mm 2 mps 702 mmHg 51%
    15:00 +13°C° 0 mm 2 mps 702 mmHg 52%
    16:00 +13°C° 0 mm 2 mps 701 mmHg 54%
    17:00 +12°C° 0 mm 1 mps 701 mmHg 58%
    18:00 +11°C° 0 mm 1 mps 702 mmHg 62%
    19:00 +10°C° 0 mm 1 mps 702 mmHg 65%
    20:00 +9°C° 0 mm 1 mps 702 mmHg 65%
    21:00 +9°C° 0 mm 1 mps 702 mmHg 65%
    22:00 +9°C° 0 mm 1 mps 702 mmHg 65%
    23:00 +8°C° 0 mm 1 mps 701 mmHg 64%

    Tomorrow, 28 May, Sunday

    Time Temperature Precipitation Wind Pressure Humidity
    00:00 +8°C° 0 mm 1 mps 701 mmHg 63%
    01:00 +8°C° 0 mm 1 mps 701 mmHg 63%
    02:00 +8°C° 0 mm 1 mps 700 mmHg 62%
    03:00 +7°C° 0 mm 1 mps 700 mmHg 62%
    04:00 +7°C° 0 mm 1 mps 699 mmHg 61%
    05:00 +7°C° 0 mm 1 mps 699 mmHg 60%
    06:00 +7°C° 0 mm 1 mps 699 mmHg 59%
    07:00 +7°C° 0 mm 1 mps 699 mmHg 58%
    08:00 +9°C° 0 mm 1 mps 700 mmHg 53%
    09:00 +10°C° 0 mm 2 mps 700 mmHg 48%
    10:00 +13°C° 0 mm 2 mps 700 mmHg 42%
    11:00 +14°C° 0 mm 2 mps 700 mmHg 40%
    12:00 +14°C° 0 mm 3 mps 699 mmHg 38%
    13:00 +14°C° 0 mm 3 mps 699 mmHg 36%
    14:00 +15°C° 0 mm 2 mps 698 mmHg 39%
    15:00 +14°C° 0 mm 2 mps 698 mmHg 41%
    16:00 +13°C° 0 mm 1 mps 698 mmHg 44%
    17:00 +12°C° 0 mm 1 mps 698 mmHg 47%
    18:00 +11°C° 0 mm 1 mps 699 mmHg 51%
    19:00 +9°C° 0 mm 2 mps 699 mmHg 54%
    20:00 +10°C° 0 mm 1 mps 699 mmHg 55%
    21:00 +9°C° 0 mm 1 mps 699 mmHg 56%
    22:00 +9°C° 0 mm 1 mps 699 mmHg 56%
    23:00 +9°C° 0 mm 1 mps 699 mmHg 57%

    Day after tomorrow, 29 May, Monday

    Time Temperature Precipitation Wind Pressure Humidity
    00:00 +9°C° 0 mm 1 mps 699 mmHg 58%
    01:00 +8°C° 0 mm 1 mps 699 mmHg 59%
    02:00 +8°C° 0 mm 1 mps 699 mmHg 60%
    03:00 +8°C° 0 mm 1 mps 699 mmHg 61%
    04:00 +8°C° 0 mm 1 mps 698 mmHg 62%
    05:00 +8°C° 0 mm 1 mps 699 mmHg 63%
    06:00 +7°C° 0 mm 2 mps 699 mmHg 63%
    07:00 +7°C° 0 mm 2 mps 700 mmHg 64%
    08:00 +9°C° 0 mm 2 mps 700 mmHg 59%
    09:00 +12°C° 0 mm 2 mps 701 mmHg 54%
    10:00 +14°C° 0 mm 2 mps 701 mmHg 49%
    11:00 +14°C° 0 mm 2 mps 701 mmHg 48%
    12:00 +15°C° 0 mm 2 mps 700 mmHg 48%
    13:00 +15°C° 0 mm 2 mps 700 mmHg 47%
    14:00 +15°C° 0 mm 2 mps 700 mmHg 51%
    15:00 +15°C° 0 mm 2 mps 700 mmHg 55%
    16:00 +14°C° 0 mm 2 mps 700 mmHg 59%
    17:00 +13°C° 0 mm 2 mps 701 mmHg 63%
    18:00 +12°C° 0 mm 1 mps 701 mmHg 68%
    19:00 +11°C° 0 mm 1 mps 701 mmHg 73%
    20:00 +10°C° 0 mm 2 mps 702 mmHg 74%
    21:00 +10°C° 0 mm 2 mps 702 mmHg 75%
    22:00 +9°C° 0 mm 2 mps 702 mmHg 76%
    23:00 +9°C° 0 mm 2 mps 702 mmHg 79%

    30 May, Tuesday

    Time Temperature Precipitation Wind Pressure Humidity
    00:00 +9°C° 0 mm 2 mps 702 mmHg 81%
    01:00 +9°C° 0 mm 2 mps 701 mmHg 83%
    02:00 +9°C° 0 mm 2 mps 701 mmHg 84%
    03:00 +8°C° 0 mm 2 mps 701 mmHg 85%
    04:00 +8°C° 0 mm 2 mps 701 mmHg 87%
    05:00 +8°C° 0 mm 2 mps 702 mmHg 87%
    06:00 +8°C° 0 mm 2 mps 702 mmHg 87%
    07:00 +8°C° 0 mm 2 mps 702 mmHg 87%
    08:00 +10°C° 0 mm 2 mps 703 mmHg 79%
    09:00 +12°C° 0 mm 1 mps 703 mmHg 72%
    10:00 +14°C° 0 mm 1 mps 703 mmHg 64%
    11:00 +15°C° 0 mm 1 mps 703 mmHg 60%
    12:00 +15°C° 0 mm 1 mps 702 mmHg 56%
    13:00 +16°C° 0 mm 2 mps 702 mmHg 52%
    14:00 +16°C° 0 mm 2 mps 702 mmHg 54%
    15:00 +16°C° 0 mm 2 mps 702 mmHg 56%
    16:00 +15°C° 0 mm 2 mps 701 mmHg 59%
    17:00 +14°C° 0 mm 2 mps 702 mmHg 63%
    18:00 +13°C° 0 mm 2 mps 702 mmHg 66%
    19:00 +12°C° 0 mm 2 mps 702 mmHg 70%
    20:00 +12°C° 0 mm 2 mps 702 mmHg 71%
    21:00 +10°C° 0 mm 2 mps 702 mmHg 71%
    22:00 +10°C° 0 mm 2 mps 702 mmHg 71%
    23:00 +10°C° 0 mm 2 mps 702 mmHg 73%

    31 May, Wednesday

    Time Temperature Precipitation Wind Pressure Humidity
    00:00 +10°C° 0 mm 1 mps 702 mmHg 74%
    01:00 +10°C° 0 mm 1 mps 701 mmHg 76%
    02:00 +9°C° 0 mm 1 mps 701 mmHg 75%
    03:00 +9°C° 0 mm 1 mps 701 mmHg 74%
    04:00 +9°C° 0 mm 1 mps 701 mmHg 74%
    05:00 +9°C° 0 mm 1 mps 701 mmHg 71%
    06:00 +9°C° 0 mm 1 mps 701 mmHg 69%
    07:00 +9°C° 0 mm 1 mps 701 mmHg 67%
    08:00 +11°C° 0 mm 1 mps 702 mmHg 58%
    09:00 +14°C° 0 mm 1 mps 702 mmHg 48%
    10:00 +16°C° 0 mm 2 mps 702 mmHg 39%
    11:00 +17°C° 0 mm 2 mps 702 mmHg 36%
    12:00 +18°C° 0 mm 2 mps 701 mmHg 34%
    13:00 +19°C° 0 mm 2 mps 701 mmHg 31%
    14:00 +18°C° 0 mm 2 mps 700 mmHg 34%
    15:00 +17°C° 0 mm 2 mps 700 mmHg 36%
    16:00 +16°C° 0 mm 2 mps 700 mmHg 39%
    17:00 +15°C° 0 mm 2 mps 700 mmHg 42%
    18:00 +14°C° 0 mm 2 mps 700 mmHg 44%
    19:00 +13°C° 0 mm 2 mps 700 mmHg 47%
    20:00 +13°C° 0 mm 2 mps 700 mmHg 49%
    21:00 +12°C° 0 mm 2 mps 699 mmHg 50%
    22:00 +12°C° 0 mm 2 mps 699 mmHg 52%
    23:00 +10°C° 0 mm 2 mps 699 mmHg 54%

    1 June, Thursday

    Time Temperature Precipitation Wind Pressure Humidity
    00:00 +10°C° 0 mm 2 mps 698 mmHg 56%
    01:00 +9°C° 0 mm 2 mps 698 mmHg 58%
    02:00 +9°C° 0 mm 2 mps 698 mmHg 61%
    03:00 +8°C° 0 mm 2 mps 698 mmHg 63%
    04:00 +8°C° 0 mm 2 mps 697 mmHg 65%
    05:00 +8°C° 0 mm 2 mps 697 mmHg 66%
    06:00 +8°C° 0 mm 2 mps 698 mmHg 67%
    07:00 +8°C° 0 mm 2 mps 698 mmHg 68%
    08:00 +10°C° 0 mm 2 mps 698 mmHg 63%
    09:00 +13°C° 0 mm 2 mps 698 mmHg 58%
    10:00 +15°C° 0 mm 2 mps 698 mmHg 53%
    11:00 +16°C° 0 mm 2 mps 698 mmHg 50%
    12:00 +17°C° 0 mm 2 mps 697 mmHg 48%
    13:00 +18°C° 0 mm 3 mps 697 mmHg 45%
    14:00 +17°C° 0 mm 2 mps 697 mmHg 49%
    15:00 +17°C° 0 mm 2 mps 697 mmHg 52%
    16:00 +16°C° 0 mm 1 mps 697 mmHg 56%
    17:00 +15°C° 0 mm 2 mps 697 mmHg 61%
    18:00 +13°C° 0 mm 2 mps 698 mmHg 66%
    19:00 +12°C° 0 mm 2 mps 698 mmHg 71%
    20:00 +12°C° 0 mm 2 mps 698 mmHg 73%
    21:00 +10°C° 0 mm 2 mps 698 mmHg 74%
    22:00 +10°C° 0 mm 2 mps 698 mmHg 76%
    23:00 +10°C° 0 mm 2 mps 698 mmHg 76%
    Show more